CDT,Max TemperatureF,Mean TemperatureF,Min TemperatureF,Max Dew PointF,MeanDew PointF,Min DewpointF,Max Humidity, Mean Humidity, Min Humidity, Max Sea Level PressureIn, Mean Sea Level PressureIn, Min Sea Level PressureIn, Max VisibilityMiles, Mean VisibilityMiles, Min VisibilityMiles, Max Wind SpeedMPH, Mean Wind SpeedMPH, Max Gust SpeedMPH,PrecipitationIn, CloudCover, Events, WindDirDegrees
2013-4-1,59,48,37,44,37,26,100,74,47,30.19,30.06,29.92,10,9,2,18,9,28,0.00,1,,343
2013-4-2,49,42,35,28,24,19,75,53,31,30.31,30.26,30.19,10,10,10,13,6,17,0.00,4,,356
2013-4-3,54,44,33,24,22,19,61,44,26,30.33,30.26,30.20,10,10,10,21,11,28,0.00,0,,60
2013-4-4,47,44,40,45,37,22,100,71,41,30.19,30.07,30.02,10,6,0,12,4,18,0.24,7,Fog-Rain,60
2013-4-5,68,51,34,43,38,32,100,65,29,30.13,30.08,30.03,10,5,0,14,4,18,0.00,2,Fog,311
2013-4-6,75,58,40,41,38,35,89,57,25,30.12,30.04,29.93,10,10,9,20,8,25,0.00,0,,175
2013-4-7,75,66,57,50,45,38,62,47,31,30.02,29.98,29.95,10,10,10,21,10,26,0.00,4,,207
2013-4-8,78,67,55,55,51,46,77,58,39,29.99,29.95,29.90,10,10,10,25,10,31,0.00,4,,182
2013-4-9,77,68,59,62,59,52,84,72,60,30.07,30.00,29.95,10,10,10,20,7,24,0.00,3,,161
2013-4-10,86,76,66,61,59,55,81,62,43,30.00,29.89,29.75,10,10,10,20,9,28,0.00,3,,181
2013-4-11,75,62,48,63,58,46,100,75,49,29.80,29.70,29.58,10,5,2,24,9,36,1.90,8,Rain-Thunderstorm,208
2013-4-12,63,50,37,46,38,34,86,63,39,30.02,29.85,29.72,10,10,10,23,9,28,0.00,3,,269
2013-4-13,65,50,35,41,37,33,92,65,37,30.12,30.05,29.99,10,10,8,8,4,,0.00,0,,45
2013-4-14,75,60,45,50,44,39,77,60,33,29.99,29.90,29.85,10,10,10,25,9,35,0.00,2,,141
2013-4-15,80,67,54,58,54,51,86,66,45,29.96,29.91,29.87,10,10,10,17,7,23,0.00,4,,163
2013-4-16,81,74,66,66,64,59,81,72,62,30.10,30.05,29.95,10,10,10,15,8,21,0.00,4,Thunderstorm,179
2013-4-17,88,77,65,68,64,61,93,68,43,30.11,30.02,29.90,10,10,7,18,9,24,0.00,2,,173
2013-4-18,82,67,52,65,61,54,93,70,47,29.89,29.75,29.59,10,8,1,35,15,39,0.90,3,Rain,177
2013-4-19,52,45,37,54,39,31,96,75,53,30.12,29.87,29.64,10,8,2,24,11,33,0.13,7,Rain,274
2013-4-20,60,47,33,36,33,31,96,66,36,30.33,30.24,30.13,10,10,10,13,4,20,0.00,0,,14
2013-4-21,64,52,39,37,32,26,70,47,24,30.42,30.33,30.27,10,10,10,15,6,20,0.00,0,,60
2013-4-22,73,58,42,45,41,35,83,59,35,30.27,30.18,30.08,10,10,10,13,5,17,0.00,0,,134
2013-4-23,75,62,52,54,51,44,83,61,48,30.11,30.02,29.92,10,10,10,20,8,26,0.00,3,,178
2013-4-24,66,52,39,58,45,36,100,83,65,30.31,30.03,29.85,10,7,2,23,11,33,0.84,7,Rain-Thunderstorm,314
2013-4-25,65,49,32,42,36,31,100,68,36,30.38,30.33,30.28,10,8,1,13,2,17,0.00,0,,335
2013-4-26,56,50,43,49,44,39,96,82,55,30.46,30.37,30.27,10,8,2,20,4,22,0.22,5,Rain,98
2013-4-27,60,55,50,58,54,48,100,94,87,30.33,30.09,29.92,10,5,1,15,8,16,3.03,8,Rain-Thunderstorm,114
2013-4-28,67,62,57,58,55,50,100,90,60,29.97,29.93,29.89,10,8,2,17,10,23,0.17,7,Rain-Thunderstorm,208
2013-4-29,73,60,47,54,51,46,100,72,44,30.04,29.98,29.91,10,7,0,6,2,,0.00,3,Fog,95
2013-4-30,80,65,50,55,53,49,100,68,36,30.02,29.97,29.93,10,10,9,12,4,15,0.00,0,,126